Lumberton, NC

6:20 AM EDT on May 27, 2018 (GMT -0400)
Lumberton Municipal

Weather History for KLBT - January, 2013

Change the Weather History Date:

Monday, January 7, 2013

  Actual Average Record
Temperature  
Mean Temperature 43 °F 43 °F  
Max Temperature 54 °F 53 °F 72 °F (2012)
Min Temperature 32 °F 33 °F 12 °F (2018)
Degree Days  
Heating Degree Days 22 22  
Month to date heating degree days 151 153  
Since 1 July heating degree days 1165 1203  
Cooling Degree Days 0 0  
Month to date cooling degree days 0 0  
Year to date cooling degree days 0 0  
Moisture  
Dew Point 36 °F    
Average Humidity 73    
Maximum Humidity 100    
Minimum Humidity 46    
Precipitation  
Precipitation 0.00 in 0.09 in 0.31 in (2017)
Month to date precipitation 0.38 0.61  
Year to date precipitation 0.38 0.61  
Sea Level Pressure  
Sea Level Pressure 30.31 in    
Wind  
Wind Speed 4 mph (NNE)    
Max Wind Speed 15 mph    
Max Gust Speed 18 mph    
Visibility 7 miles    
Events      
T = Trace of Precipitation, MM = Missing Value Source: NWS Daily Summary

Daily Weather History Graph

Daily Weather History Graph

Search for Another Location

Airport or City:

Astronomy

Jan. 07, 2013 Rise Set
Actual Time 7:23 AM EST 5:21 PM EST
Civil Twilight 6:56 AM EST 5:49 PM EST
Nautical Twilight 6:24 AM EST 6:20 PM EST
Astronomical Twilight 5:54 AM EST 6:51 PM EST
Moon 2:48 AM EST (1/7) 1:29 PM EST (1/7)
Length of Visible Light 10h 53m
Length of Day
9h 57m
Waning Crescent, 23% of the Moon is Illuminated
Jan 7
Waning Crescent
Jan 11
New
Jan 18
First Quarter
Jan 26
Full
Feb 3
Last Quarter

Hourly Weather History & Observations

Time (EST) Temp. Windchill Dew Point Humidity Pressure Visibility Wind Dir Wind Speed Gust Speed Precip Events Conditions
12:04 AM 44.6 °F 41.4 °F 44.6 °F 100% 30.18 in 1.2 mi North 5.8 mph - N/A   Overcast
12:07 AM 44.6 °F 42.2 °F 44.6 °F 100% 30.18 in 2.0 mi NNW 4.6 mph - N/A   Overcast
12:31 AM 44.6 °F 39.7 °F 44.6 °F 100% 30.18 in 3.0 mi NNW 9.2 mph - N/A   Overcast
12:54 AM 44.1 °F 40.1 °F 44.1 °F 100% 30.20 in 4.0 mi NNW 6.9 mph - N/A   Mostly Cloudy
1:54 AM 42.1 °F 39.2 °F 41.0 °F 96% 30.21 in 7.0 mi North 4.6 mph - N/A   Mostly Cloudy
2:54 AM 41.0 °F 38.0 °F 37.9 °F 89% 30.22 in 9.0 mi NNW 4.6 mph - N/A   Clear
3:54 AM 37.0 °F 34.5 °F 36.0 °F 96% 30.22 in 8.0 mi NNW 3.5 mph - N/A   Clear
4:41 AM 35.6 °F - 33.8 °F 93% 30.24 in 1.8 mi Calm Calm - N/A   Clear
4:52 AM 35.6 °F - 35.6 °F 100% 30.24 in 3.0 mi Calm Calm - N/A   Clear
4:53 AM 36.0 °F - 35.1 °F 97% 30.24 in 3.0 mi Calm Calm - N/A   Clear
5:05 AM 33.8 °F - 33.8 °F 100% 30.24 in 1.5 mi Calm Calm - N/A   Clear
5:07 AM 33.8 °F - 33.8 °F 100% 30.24 in 0.8 mi Calm Calm - N/A   Clear
5:17 AM 35.6 °F - 33.8 °F 93% 30.24 in 1.2 mi Calm Calm - N/A   Clear
5:24 AM 33.8 °F - 33.8 °F 100% 30.25 in 2.5 mi Calm Calm - N/A   Clear
5:39 AM 33.8 °F - 33.8 °F 100% 30.26 in 4.0 mi Calm Calm - N/A   Clear
5:54 AM 35.1 °F - 34.0 °F 96% 30.26 in 6.0 mi Calm Calm - N/A   Clear
6:54 AM 35.1 °F - 32.0 °F 89% 30.30 in 6.0 mi Calm Calm - N/A   Clear
7:54 AM 34.0 °F - 32.0 °F 92% 30.33 in 6.0 mi Calm Calm - N/A   Clear
8:54 AM 41.0 °F 36.4 °F 35.1 °F 79% 30.36 in 10.0 mi North 6.9 mph - N/A   Clear
9:54 AM 46.0 °F 41.0 °F 35.1 °F 66% 30.39 in 10.0 mi NNE 10.4 mph - N/A   Clear
10:54 AM 48.9 °F - 35.1 °F 59% 30.40 in 10.0 mi NE 9.2 mph - N/A   Clear
11:54 AM 51.1 °F - 34.0 °F 52% 30.38 in 10.0 mi NE 6.9 mph - N/A   Clear
12:54 PM 53.1 °F - 35.1 °F 50% 30.37 in 10.0 mi ENE 9.2 mph - N/A   Clear
1:54 PM 54.0 °F - 34.0 °F 47% 30.37 in 10.0 mi ENE 5.8 mph - N/A   Clear
2:54 PM 53.1 °F - 33.1 °F 47% 30.38 in 10.0 mi Variable 6.9 mph - N/A   Clear
3:54 PM 53.1 °F - 33.1 °F 47% 30.38 in 10.0 mi ENE 4.6 mph - N/A   Clear
4:54 PM 51.1 °F - 34.0 °F 52% 30.39 in 10.0 mi Variable 5.8 mph - N/A   Clear
6:54 PM 41.0 °F - 34.0 °F 76% 30.42 in 10.0 mi Calm Calm - N/A   Clear
7:54 PM 39.0 °F - 34.0 °F 82% 30.41 in 10.0 mi Calm Calm - N/A   Clear
8:54 PM 36.0 °F - 34.0 °F 93% 30.43 in 10.0 mi Calm Calm - N/A   Clear
9:54 PM 36.0 °F - 34.0 °F 93% 30.43 in 10.0 mi Calm Calm - N/A   Clear
10:54 PM 36.0 °F - 33.1 °F 89% 30.41 in 9.0 mi Calm Calm - N/A   Clear
11:54 PM 35.1 °F 30.1 °F 32.0 °F 89% 30.40 in 8.0 mi NE 5.8 mph - N/A   Clear